Location: Rounton
(54.4000°N, 1.3500°W)
Time: 23:11:31
(UTC+00:00)

Tiros 1 despin weight - Visible Passes

Search period start: 29 November 2021 00:00
Search period end: 09 December 2021 00:00
Orbit: 593 x 641 km, 48.2° (Epoch: 29 November)

Date Brightness Start Highest point End Pass type
(mag) Time Alt. Az. Time Alt. Az. Time Alt. Az.
29 Nov ? 17:26:11 10° WSW 17:30:15 37° S 17:33:24 15° ESE visible
29 Nov ? 19:07:19 10° WSW 19:10:26 28° SW 19:10:26 28° SW visible
30 Nov ? 17:42:08 10° WSW 17:46:12 36° S 17:48:56 18° SE visible
30 Nov ? 19:23:33 10° WSW 19:25:59 21° SW 19:25:59 21° SW visible
01 Dec ? 17:58:11 10° WSW 18:02:08 33° SSW 18:04:32 19° SE visible
01 Dec ? 19:40:03 10° WSW 19:41:35 15° SW 19:41:35 15° SW visible
02 Dec ? 16:33:04 10° WSW 16:37:08 37° S 16:41:13 10° ESE visible
02 Dec ? 18:14:18 10° WSW 18:18:02 27° SSW 18:20:13 18° SSE visible
03 Dec ? 16:49:03 10° WSW 16:53:05 35° S 16:57:07 10° ESE visible
03 Dec ? 18:30:37 10° WSW 18:33:51 20° SSW 18:36:02 14° S visible
04 Dec ? 17:05:08 10° WSW 17:09:00 30° SSW 17:12:52 10° SE visible
04 Dec ? 18:47:20 10° WSW 18:49:35 14° SW 18:51:51 10° S visible
05 Dec ? 17:21:19 10° WSW 17:24:52 24° SSW 17:28:25 10° SSE visible
06 Dec ? 17:37:44 10° WSW 17:40:39 17° SSW 17:43:35 10° SSE visible
07 Dec ? 17:54:53 10° WSW 17:56:21 11° SW 17:57:49 10° SSW visible
08 Dec ? 16:28:20 10° WSW 16:31:41 21° SSW 16:35:02 10° SSE visible
